Volver al catálogo

STARLINK-36285

ActivoComunicacionesVLEO
NORAD 68530·PAYLOAD·🇺🇸 United States

Lanzado Mar 30, 2026 desde Cape Canaveral Space Force Station

Loading…

Próximos Pases (próximas 24 horas)

TLE

ActualizadoSource: CelesTrak SupGP

Época: Sep 14, 2026, 15:18 UTC

1 68530C 26068Y   26257.63798611  .00036038  00000+0  10651-2 0  2578
2 68530  53.1598 329.1846 0001126  65.0370  96.2335 15.34362946    11

Sigue STARLINK-36285 en tiempo real con AllMySat

Download on the App Store